Regional Weather Roundup
Issued by NWS

Home | Current Version | Previous Version | Graphics & Text | Print | Product List | Glossary On
Versions: 1 2 3 4 5 6 7 8 9 10 11 12 13 14 15 16 17 18 19 20 21 22 23 24 25 26 27 28 29 30 31 32 33 34 35 36 37 38 39 40 41 42 43 44 45 46 47 48 49 50
000
ASUS43 KIND 021959
RWRIN

WEATHER ROUNDUP FOR INDIANA
NATIONAL WEATHER SERVICE INDIANAPOLIS IN
400 PM EDT TUE SEP 02 2014

NOTE: "FAIR" INDICATES FEW OR NO CLOUDS BELOW 12,000 FEET WITH NO
SIGNIFICANT WEATHER AND/OR OBSTRUCTIONS TO VISIBILITY.

* - STATION DOES NOT REPORT WEATHER SUCH AS PRECIPITATION OR FOG.

+ - STATION NOT QUALITY CONTROLLED BY THE NATIONAL WEATHER SERVICE.
    USE DATA WITH CAUTION...ESPECIALLY DEWPOINT AND RELATIVE
    HUMIDITY OBSERVATIONS.

INZ001>003-010>013-019-020-022100-
NORTHWEST INDIANA

CITY           SKY/WX    TMP DP  RH WIND       PRES   REMARKS
GARY /AIRPORT/ PTSUNNY   82  59  44 W14       29.91R
KNOX *+        PTSUNNY   78  64  60 W7        29.91S
MONTICELLO +   PTSUNNY   76  68  76 SW6       29.93S
VALPARAISO     MOSUNNY   78  62  57 SW8       29.92S

$$

LMZ046-743>745-022100-
SOUTHERN LAKE MICHIGAN

STATION/POSITION TIME  TEMP WIND        PRES
                       AIR  DIR/SP/G
                 (UTC) (F)  (DEG/KT/KT) (MB)
MICHIGAN CITY    1900   75  340/  2/  3   N/A

$$

INZ004-005-014>016-021>024-022100-
NORTH CENTRAL INDIANA

CITY           SKY/WX    TMP DP  RH WIND       PRES   REMARKS
ELKHART        CLOUDY    75  63  64 W7        29.92S
GOSHEN         MOSUNNY   80  64  58 W14       29.92S
SOUTH BEND     MOSUNNY   81  61  50 W7        29.92S

$$

INZ006>009-017-018-025>027-022100-
NORTHEAST INDIANA

CITY           SKY/WX    TMP DP  RH WIND       PRES   REMARKS
ANGOLA *+      CLOUDY    79  66  65 NW6       29.92R
FORT WAYNE     PTSUNNY   77  68  73 SW10      29.93F

$$

INZ028-029-035-036-043>045-051>053-022100-
WEST CENTRAL INDIANA

CITY           SKY/WX    TMP DP  RH WIND       PRES   REMARKS
GREENCASTLE +  CLOUDY    73  68  83 CALM      29.97F
LAFAYETTE      PTSUNNY   76  67  73 SW7       29.94S
TERRE HAUTE    CLOUDY    78  69  73 W6        29.96F

$$

INZ030>032-037>040-046>048-054>057-064-065-022100-
CENTRAL INDIANA

CITY           SKY/WX    TMP DP  RH WIND       PRES   REMARKS
ANDERSON       PTSUNNY   75  68  78 W12       29.97F
COLUMBUS       PTSUNNY   77  72  83 W3        29.95
FRANKFORT +    CLOUDY    78  68  71 W8        29.97S
INDIANAPOLIS   CLOUDY    76  67  73 W10       29.95F
-EAGLE CREEK   CLOUDY    76  65  68 W8        29.95F
KOKOMO *+      PTSUNNY   79  66  65 W10       29.94F
MT COMFORT *+  PTSUNNY   77  66  69 W12       29.96F
SHELBYVILLE    PTSUNNY   77  67  71 NW8       29.95F

$$

INZ033-034-041-042-049-050-058-059-022100-
EAST CENTRAL INDIANA

CITY           SKY/WX    TMP DP  RH WIND       PRES   REMARKS
MUNCIE         PTSUNNY   75  67  76 W7        29.95S

$$

INZ060-061-067>069-081>083-085>088-022100-
SOUTHWEST INDIANA

CITY           SKY/WX    TMP DP  RH WIND       PRES   REMARKS
EVANSVILLE     CLOUDY    83  71  67 NW6       29.95F

$$

INZ062-063-066-070>080-084-089>092-022100-
SOUTH CENTRAL AND SOUTHEAST INDIANA

CITY           SKY/WX    TMP DP  RH WIND       PRES   REMARKS
BLOOMINGTON    PTSUNNY   76  69  79 NW7       29.97S

$$




USA.gov is the U.S. government's official web portal to all federal, state and local government web resources and services.